Powrót do katalogu

OPS 4682 DEB

AktywnyPO
NORAD 49110·DEBRIS·🇺🇸 United States

Wystrzelony Apr 3, 1965 z Vandenberg Space Force Base

Loading…

Następne Przeloty (najbliższe 24 godziny)

TLE

Starzejące sięSource: Space-Track

Epoka: Sep 5, 2026, 19:14 UTC

1 49110U 65027FT  26248.80142697  .00000799  00000-0  26542-2 0  9990
2 49110  90.2586  14.7636 0040034 175.5699 184.5785 12.99150472446807

Śledź OPS 4682 DEB w czasie rzeczywistym z AllMySat

Download on the App Store